DL2GPS-3 Weather Reports


time (UTC)temp
C
wind
direction
speed
KPH
gust
KPH
rain 1hr
cm
rain 24hr
cm
rain mn
cm
humidity
%
barometer
mb
20260506201828 6 25.7 25.7 0.00 0.00 0.00 10 1011.4
20260506200823 5 24.1 25.7 0.00 0.00 0.00 10 1011.5
20260506195819 5 25.7 25.7 0.00 0.00 0.00 10 1011.4
20260506194812 6 24.1 25.7 0.00 0.00 0.00 10 1011.3
20260506193807 6 24.1 25.7 0.00 0.00 0.00 10 1011.2
20260506192802 6 24.1 27.4 0.00 0.00 0.00 10 1011.1
20260506191758 6 24.1 25.7 0.00 0.00 0.00 10 1011.0
20260506190753 6 24.1 25.7 0.00 0.00 0.00 10 1010.9
20260506185749 6 24.1 25.7 0.00 0.00 0.00 10 1010.8
20260506184743 6 24.1 25.7 0.00 0.00 0.00 10 1010.8
20260506183737 6 24.1 27.4 0.00 0.00 0.00 10 1010.6
20260506182732 6 24.1 25.7 0.00 0.00 0.00 10 1010.5
20260506181727 6 24.1 25.7 0.00 0.00 0.00 10 1010.4
20260506180723 6 24.1 24.1 0.00 0.00 0.00 10 1010.3
20260506175717 6 24.1 25.7 0.00 0.00 0.00 10 1010.2
20260506174713 6 24.1 25.7 0.00 0.00 0.00 10 1010.1
20260506173709 7 24.1 25.7 0.00 0.00 0.00 10 1009.9
20260506172703 7 24.1 25.7 0.00 0.00 0.00 10 1009.7
20260506171659 7 25.7 27.4 0.00 0.00 0.00 10 1009.7
20260506170654 7 24.1 25.7 0.00 0.00 0.00 10 1009.6
20260506165648 7 24.1 27.4 0.00 0.00 0.00 10 1009.5
20260506164643 7 24.1 27.4 0.00 0.00 0.00 10 1009.5
20260506163639 7 24.1 25.7 0.00 0.00 0.00 10 1009.6
20260506162632 7 24.1 24.1 0.00 0.00 0.00 10 1009.6
20260506161627 7 25.7 25.7 0.00 0.00 0.00 10 1009.6
20260506160622 7 24.1 27.4 0.00 0.00 0.00 10 1009.6
20260506155617 7 24.1 25.7 0.00 0.00 0.00 10 1009.7
20260506154611 7 24.1 27.4 0.00 0.00 0.00 10 1009.5
20260506153607 7 24.1 27.4 0.00 0.00 0.00 10 1009.6
20260506152602 7 24.1 25.7 0.00 0.00 0.00 10 1009.5
20260506151557 7 24.1 27.4 0.00 0.00 0.00 10 1009.4
20260506150553 8 24.1 25.7 0.00 0.00 0.00 10 1009.3
20260506145548 8 24.1 25.7 0.00 0.00 0.00 10 1009.3
20260506144543 8 24.1 25.7 0.00 0.00 0.00 10 1009.1
20260506143539 8 24.1 27.4 0.00 0.00 0.00 10 1009.1
20260506142532 8 24.1 27.4 0.00 0.00 0.00 10 1009.1
20260506141527 9 24.1 25.7 0.00 0.00 0.00 10 1009.1
20260506140522 9 25.7 27.4 0.00 0.00 0.00 10 1009.0
20260506135517 9 24.1 25.7 0.00 0.00 0.00 10 1008.9
20260506134512 9 24.1 25.7 0.00 0.00 0.00 10 1008.8
20260506133506 9 24.1 25.7 0.00 0.00 0.00 10 1008.8
20260506132501 10 24.1 25.7 0.00 0.00 0.00 10 1008.9
20260506131455 10 24.1 25.7 0.00 0.00 0.00 10 1008.8
20260506130452 10 24.1 27.4 0.00 0.00 0.00 10 1008.9
20260506125446 10 25.7 25.7 0.00 0.00 0.00 10 1008.8
20260506124441 10 24.1 27.4 0.00 0.00 0.00 10 1008.8
20260506123435 10 24.1 25.7 0.00 0.00 0.00 10 1008.8
20260506122431 10 25.7 27.4 0.00 0.00 0.00 10 1008.6
20260506121426 10 24.1 25.7 0.00 0.00 0.00 10 1008.6
20260506120421 10 24.1 25.7 0.00 0.00 0.00 10 1008.5
20260506115415 10 24.1 25.7 0.00 0.00 0.00 10 1008.5
20260506114410 10 24.1 25.7 0.00 0.00 0.00 10 1008.4
20260506113405 10 24.1 25.7 0.00 0.00 0.00 10 1008.4
20260506112400 10 24.1 25.7 0.00 0.00 0.00 10 1008.4
20260506111354 11 24.1 25.7 0.00 0.00 0.00 10 1008.3
20260506110350 11 24.1 27.4 0.00 0.00 0.00 10 1008.1
20260506105345 12 24.1 25.7 0.00 0.00 0.00 10 1008.1
20260506104340 13 24.1 27.4 0.00 0.00 0.00 10 1008.1
20260506103334 13 24.1 27.4 0.00 0.00 0.00 96 1008.1
20260506102330 13 24.1 25.7 0.00 0.00 0.00 97 1008.2
20260506101325 13 24.1 25.7 0.00 0.00 0.00 10 1008.2
20260506100320 13 24.1 25.7 0.00 0.00 0.00 10 1008.1
20260506095315 13 24.1 27.4 0.00 0.00 0.00 97 1008.1
20260506094310 13 24.1 27.4 0.00 0.00 0.00 91 1008.1
20260506093305 14 24.1 25.7 0.00 0.00 0.00 86 1008.1
20260506092300 15 24.1 25.7 0.00 0.00 0.00 81 1008.1
20260506091255 15 24.1 27.4 0.00 0.00 0.00 70 1008.1
20260506090250 16 24.1 25.7 0.00 0.00 0.00 72 1008.2
20260506085245 16 24.1 25.7 0.00 0.00 0.00 66 1008.0
20260506084240 15 24.1 25.7 0.00 0.00 0.00 69 1007.9
20260506083235 17 24.1 25.7 0.00 0.00 0.00 65 1007.8
20260506082230 15 24.1 25.7 0.00 0.00 0.00 72 1007.8
20260506081225 15 24.1 25.7 0.00 0.00 0.00 79 1007.8
20260506080220 15 24.1 25.7 0.00 0.00 0.00 81 1007.9
20260506073204 13 24.1 27.4 0.00 0.00 0.00 90 1008.1
20260506072200 13 25.7 27.4 0.00 0.00 0.00 92 1008.0
20260506071155 12 24.1 25.7 0.00 0.00 0.00 10 1008.0
20260506070151 12 24.1 25.7 0.00 0.00 0.00 10 1007.9
20260506062129 10 24.1 27.4 0.00 0.00 0.00 10 1008.0
20260506061124 10 24.1 25.7 0.00 0.00 0.00 10 1008.0
20260506060119 10 24.1 25.7 0.00 0.00 0.00 10 1008.1
20260506051056 11 24.1 27.4 0.00 0.00 0.00 10 1008.1
20260506045046 11 24.1 25.7 0.00 0.00 0.00 10 1008.1
20260506044041 8 24.1 27.4 0.00 0.00 0.00 10 1008.1
20260506043036 7 24.1 27.4 0.00 0.00 0.00 10 1008.3
20260506042031 7 24.1 25.7 0.00 0.00 0.00 10 1008.3
20260506041026 7 24.1 27.4 0.00 0.00 0.00 10 1008.5
20260506040021 7 24.1 25.7 0.00 0.00 0.00 10 1008.6
20260506035016 7 24.1 27.4 0.00 0.00 0.00 10 1008.6
20260506034011 7 24.1 27.4 0.00 0.00 0.00 10 1008.5
20260506033006 7 24.1 25.7 0.00 0.00 0.00 10 1008.4
20260506032001 8 24.1 25.7 0.00 0.00 0.00 10 1008.6
20260506030956 7 25.7 25.7 0.00 0.00 0.00 10 1008.8
20260506025951 7 25.7 29.0 0.00 0.00 0.00 10 1008.9
20260506024947 7 24.1 25.7 0.00 0.00 0.00 10 1009.0
20260506023942 7 24.1 27.4 0.00 0.00 0.00 10 1009.1
20260506022937 7 25.7 25.7 0.00 0.00 0.00 10 1009.2
20260506021931 7 24.1 25.7 0.00 0.00 0.00 10 1009.2
20260506020927 7 24.1 25.7 0.00 0.00 0.00 10 1009.3
20260506015923 7 25.7 25.7 0.00 0.00 0.00 10 1009.5
20260506014918 7 24.1 25.7 0.00 0.00 0.00 10 1009.6
20260506013912 7 25.7 25.7 0.00 0.00 0.00 10 1009.7
20260506012908 7 25.7 25.7 0.00 0.00 0.00 10 1009.7
20260506011903 7 24.1 25.7 0.00 0.00 0.00 10 1010.0
20260506010859 7 24.1 25.7 0.00 0.00 0.00 10 1009.7
20260506005853 7 24.1 25.7 0.00 0.00 0.00 10 1009.8
20260506004848 7 24.1 25.7 0.00 0.00 0.00 10 1009.8
20260506003843 7 24.1 25.7 0.00 0.00 0.00 10 1009.8
20260506002839 7 24.1 25.7 0.00 0.00 0.00 10 1009.9
20260506001833 7 24.1 27.4 0.00 0.00 0.00 10 1009.9
20260506000829 7 24.1 25.7 0.00 0.00 0.00 10 1010.0
20260505235824 7 24.1 24.1 0.00 0.00 0.00 10 1010.1
20260505234819 7 24.1 25.7 0.00 0.00 0.00 10 1010.2
20260505233814 7 24.1 27.4 0.00 0.00 0.00 10 1010.2
20260505232809 7 24.1 25.7 0.00 0.00 0.00 10 1010.5
20260505231804 7 24.1 27.4 0.00 0.00 0.00 10 1010.4
20260505230759 7 24.1 25.7 0.00 0.00 0.00 10 1010.5
20260505225754 7 25.7 25.7 0.00 0.00 0.00 10 1010.4
20260505224750 7 25.7 27.4 0.00 0.00 0.00 10 1010.5
20260505223745 7 24.1 25.7 0.00 0.00 0.00 10 1010.4
20260505222740 7 25.7 25.7 0.00 0.00 0.00 10 1010.6
20260505221735 7 24.1 25.7 0.00 0.00 0.00 10 1010.7
20260505220729 7 24.1 25.7 0.00 0.00 0.00 10 1010.7
20260505215724 7 24.1 27.4 0.00 0.00 0.00 10 1010.7
20260505214721 8 24.1 25.7 0.00 0.00 0.00 10 1010.7
20260505213720 8 24.1 25.7 0.00 0.00 0.00 10 1010.5
20260505212719 8 24.1 25.7 0.00 0.00 0.00 10 1010.5
20260505211717 8 24.1 25.7 0.00 0.00 0.00 10 1010.5
20260505210717 8 24.1 24.1 0.00 0.00 0.00 10 1010.6
20260505205716 8 24.1 27.4 0.00 0.00 0.00 10 1010.6
20260505204716 8 24.1 25.7 0.00 0.00 0.00 10 1010.5
20260505203714 8 24.1 25.7 0.00 0.00 0.00 10 1010.5
20260505202713 8 24.1 25.7 0.00 0.00 0.00 10 1010.3